[[{"header":{"parameterUnit":"m.s-1","parameterCategory":1,"la1":30.2991,"la2":30.254,"lo1":-89.0895,"lo2":-89.0444,"dy":0.0017,"dx":0.0017,"nx":28,"ny":28,"refTime":"2025-07-14T03:00:00:Z","depth":0,"parameterNumber":2,"parameterNumberName":"U-component_of_WINDS"},"data":[0,0,0,0,0,0,0,0,0,0,0,0,0,0,0,0,0,0,0,0,0,0,0,0,0,0,0,0,0,0,0,0,0,0,0,0,0,0,0,0,0,0,0,0,0,0,0,0,0,0,0,0,0,0,0,0,0,0,0.9012,0.9013,0,0.9068,0.9069,0.9069,0.9064,0.9063,0.9062,0.9061,0.9122,0.9125,0.9127,0,0,0,0,0,0,0,0,0,0,0,0,0,0.8905,0.8907,0.9012,0.9013,0.9013,0.9068,0.9069,0.9069,0.9064,0.9063,0.9062,0.9061,0.9122,0.9125,0.9127,0,0,0,0,0,0,0,0,0,0,0,0,0,0.8955,0.8907,0.9012,0.9017,0.9018,0.9068,0.9069,0.907,0.9064,0.9063,0.9062,0.906,0.9121,0.9124,0.9128,0.9177,0,0,0.9139,0.9141,0,0,0,0,0,0,0,0,0.8952,0.8959,0.9016,0.9017,0.9018,0.9057,0.9053,0.9106,0.9065,0.9047,0.9061,0.906,0.9102,0.9107,0.9121,0.918,0.9182,0.9139,0.9142,0.9143,0.9144,0,0,0,0,0,0,0,0.8949,0.8957,0.9034,0.9017,0.9018,0.9018,0.9024,0.9063,0.9081,0.9048,0.9048,0.9055,0.9103,0.9117,0.9122,0.9183,0.9139,0.9143,0.9145,0.9146,0.9287,0.9288,0,0,0,0,0,0,0.8943,0.8954,0.9032,0.9036,0.8981,0.9021,0.9027,0.9046,0.9081,0.9085,0.9056,0.9054,0.9112,0.9118,0.9124,0.9185,0.9143,0.9147,0.9149,0.9285,0.9287,0.9289,0,0,0,0,0,0,0.8941,0.8951,0.903,0.8995,0.9005,0.9024,0.9045,0.9048,0.9063,0.9086,0.909,0.9067,0.9111,0.9119,0.9164,0.9187,0.9148,0.9152,0.9284,0.9286,0.9288,0.9306,0,0,0,0,0,0,0.8938,0.895,0.8968,0.8995,0.9007,0.9068,0.9047,0.905,0.9069,0.9067,0.9098,0.9102,0.911,0.9158,0.9168,0.9192,0.9155,0.9282,0.9285,0.9287,0.9304,0.9309,0.9314,0,0,0,0,0,0.8934,0.8971,0.8968,0.8978,0.9029,0.9069,0.9076,0.9084,0.907,0.9089,0.9105,0.9101,0.9183,0.9163,0.9173,0.9199,0.928,0.9284,0.9287,0.9302,0.9308,0.9313,0,0,0,0,0,0,0.8947,0.8975,0.8972,0.9019,0.9041,0.9068,0.9092,0.909,0.9118,0.9116,0.9126,0.9133,0.9178,0.9193,0.917,0.9249,0.923,0.9236,0.9238,0.9244,0.9248,0.9245,0.9158,0,0,0,0,0,0.8955,0.8984,0.9007,0.9046,0.9057,0.9073,0.909,0.9094,0.9119,0.9129,0.9147,0.9172,0.9204,0.9224,0.9254,0.9305,0.9313,0.9328,0.9333,0.9337,0.9342,0.9371,0.9379,0.93,0.93,0.93,0,0,0.8972,0.8991,0.9009,0.9049,0.9067,0.9098,0.9081,0.9114,0.9138,0.9134,0.9178,0.9192,0.9221,0.9269,0.9291,0.9283,0.9365,0.9341,0.9344,0.9347,0.9376,0.9383,0.939,0.9302,0.9302,0.9302,0,0,0.902,0.9036,0.9071,0.9089,0.9116,0.9126,0.9135,0.9162,0.9171,0.9214,0.9213,0.9241,0.9295,0.9316,0.9333,0.9389,0.9387,0.9398,0.9424,0.9453,0.9459,0.9465,0.9486,0.9493,0.9403,0.9403,0.9403,0,0.9039,0.9084,0.9089,0.9123,0.9142,0.9138,0.9175,0.9192,0.9229,0.9242,0.9231,0.9299,0.9318,0.9372,0.9385,0.9399,0.941,0.9396,0.9457,0.9463,0.9468,0.9489,0.9497,0.9405,0.9404,0.9404,0.9404,0,0.9106,0.9137,0.9163,0.9196,0.9217,0.9252,0.9265,0.9285,0.9288,0.9299,0.9344,0.9367,0.9402,0.9415,0.9418,0.9469,0.9463,0.9455,0.9437,0.9477,0.9497,0.9504,0.9406,0.9406,0.9406,0.9405,0,0,0.9164,0.92,0.921,0.9226,0.9255,0.928,0.9315,0.9349,0.9367,0.9392,0.9423,0.9468,0.9461,0.9481,0.9486,0.9511,0.9555,0.9499,0.95,0.951,0.9615,0.9622,0.9631,0.9553,0.9555,0.9556,0.9613,0,0.9216,0.9277,0.9283,0.9339,0.9369,0.9366,0.9397,0.9419,0.9431,0.9459,0.9473,0.9505,0.9492,0.9504,0.9528,0.9544,0.9576,0.954,0.9584,0.9585,0.9578,0.9641,0.9649,0.9702,0.9621,0.9622,0.9623,0,0.9285,0.9311,0.9369,0.9395,0.9408,0.9435,0.9466,0.9493,0.9519,0.9525,0.9548,0.955,0.9587,0.9566,0.9619,0.9595,0.9613,0.9623,0.9626,0.9631,0.9608,0.965,0.9719,0.9727,0.9635,0.9634,0.9633,0,0.9324,0.9373,0.9414,0.9427,0.9459,0.9478,0.9492,0.9516,0.9536,0.9564,0.9577,0.9609,0.9627,0.9653,0.9664,0.9647,0.9717,0.9696,0.9725,0.9725,0.9741,0.974,0.9815,0.975,0.975,0.975,0.975,0,0.9382,0.9418,0.9432,0.9458,0.9498,0.9505,0.9546,0.9559,0.9581,0.961,0.961,0.9638,0.965,0.968,0.9689,0.9732,0.974,0.9748,0.975,0.9749,0.9748,0.9762,0.9759,0.9752,0.9752,0.9751,0.9751,0,0.9432,0.9443,0.9488,0.9513,0.9521,0.955,0.9572,0.9598,0.9609,0.9646,0.9655,0.9673,0.9708,0.9721,0.9765,0.9771,0.9821,0.982,0.9813,0.9814,0.9842,0.984,0.993,0.9943,0.9868,0.9869,0.9869,0,0.9469,0.9497,0.9525,0.9544,0.9558,0.9589,0.9609,0.9617,0.9638,0.967,0.9692,0.9726,0.9755,0.9812,0.983,0.9863,0.9863,0.9893,0.9869,0.9867,0.9866,0.9864,0.9868,0.9898,0.9898,0.9899,0.99,0,0.9535,0.9539,0.9567,0.9597,0.9621,0.9645,0.9669,0.9685,0.9697,0.9721,0.9756,0.9778,0.9822,0.9857,0.9891,0.9907,0.9906,0.9907,0.9915,0.9915,0.991,0.9915,0.9826,0.9905,0.9904,0.9904,0.9904,0.9904,0.9581,0.9606,0.9629,0.9661,0.9679,0.9702,0.9727,0.9741,0.977,0.9806,0.9809,0.9848,0.9873,0.9919,0.9936,0.9968,0.996,0.9972,0.9976,0.9979,0.9982,0.9904,0.9974,0.9974,0.9973,0.9973,0.9973,0,0.9648,0.9663,0.9691,0.9724,0.975,0.9744,0.977,0.9792,0.9826,0.9849,0.9877,0.9918,0.9952,0.9972,1.0007,1.0028,1.0029,1.0037,1.0037,1.0041,0.9986,0.9976,1.0036,1.0036,1.0036,1.0036,1.0036,1.0036,0.9686,0.9728,0.9734,0.9786,0.9801,0.9838,0.9853,0.9874,0.9893,0.9939,0.9967,0.9979,1.0001,1.0038,1.0069,1.0074,1.0088,1.0097,1.0102,1.0051,1.0044,1.0038,1.0029,1.0099,1.01,1.0154,1.0155,1.0155]},{"header":{"parameterUnit":"m.s-1","parameterCategory":1,"la1":30.2991,"la2":30.254,"lo1":-89.0895,"lo2":-89.0444,"dy":0.0017,"dx":0.0017,"nx":28,"ny":28,"refTime":"2025-07-14T03:00:00:Z","depth":0,"parameterNumber":3,"parameterNumberName":"V-component_of_WINDS"},"data":[0,0,0,0,0,0,0,0,0,0,0,0,0,0,0,0,0,0,0,0,0,0,0,0,0,0,0,0,0,0,0,0,0,0,0,0,0,0,0,0,0,0,0,0,0,0,0,0,0,0,0,0,0,0,0,0,0,0,0.9428,0.9427,0,0.9362,0.9362,0.9361,0.9303,0.9302,0.9301,0.9301,0.9234,0.9233,0.9232,0,0,0,0,0,0,0,0,0,0,0,0,0,0.95,0.9499,0.9428,0.9427,0.9426,0.9363,0.9362,0.9361,0.9303,0.9302,0.9301,0.93,0.9235,0.9233,0.9232,0,0,0,0,0,0,0,0,0,0,0,0,0,0.9455,0.9499,0.9428,0.9389,0.9385,0.9363,0.9362,0.936,0.9303,0.9302,0.9301,0.93,0.9235,0.9233,0.9232,0.9242,0,0,0.9226,0.9226,0,0,0,0,0,0,0,0,0.9458,0.9453,0.9396,0.9392,0.9387,0.934,0.9363,0.9321,0.9303,0.9334,0.9301,0.9299,0.927,0.9265,0.9255,0.9239,0.9236,0.9226,0.9225,0.9225,0.9224,0,0,0,0,0,0,0,0.9461,0.9455,0.9402,0.9395,0.939,0.9375,0.9367,0.9354,0.9309,0.9332,0.9327,0.932,0.9268,0.9257,0.9253,0.9235,0.9226,0.9225,0.9224,0.9223,0.9218,0.9219,0,0,0,0,0,0,0.947,0.9458,0.9404,0.94,0.9421,0.9374,0.9366,0.9356,0.9309,0.9301,0.9321,0.9318,0.9261,0.9256,0.9251,0.9256,0.9225,0.9223,0.9222,0.9217,0.9219,0.9219,0,0,0,0,0,0,0.9472,0.9466,0.9407,0.9428,0.9419,0.9374,0.9364,0.9355,0.9345,0.9301,0.9292,0.9319,0.926,0.9253,0.9243,0.9253,0.9222,0.9221,0.9216,0.9218,0.9219,0.927,0,0,0,0,0,0,0.9474,0.9467,0.9471,0.9428,0.9418,0.9401,0.9364,0.9355,0.9342,0.9337,0.9297,0.9289,0.9258,0.9246,0.9242,0.925,0.9219,0.9215,0.9217,0.9219,0.9267,0.9272,0.9277,0,0,0,0,0,0.9477,0.9489,0.9471,0.9465,0.9422,0.9402,0.9396,0.936,0.9343,0.9346,0.9317,0.929,0.9253,0.9246,0.924,0.9249,0.9214,0.9216,0.9218,0.9264,0.9271,0.9277,0,0,0,0,0,0,0.9534,0.9482,0.9463,0.9461,0.9436,0.9392,0.9395,0.9369,0.9349,0.9345,0.9302,0.9293,0.9287,0.9267,0.926,0.9254,0.923,0.9231,0.9267,0.9273,0.9278,0.9282,0.9218,0,0,0,0,0,0.9547,0.9535,0.949,0.9493,0.9481,0.944,0.943,0.9404,0.9377,0.9366,0.9337,0.9311,0.9293,0.9282,0.9264,0.9264,0.9253,0.9267,0.9272,0.9276,0.9277,0.9272,0.9277,0.9226,0.9226,0.9226,0,0,0.9572,0.9542,0.9538,0.9503,0.9481,0.9468,0.9432,0.9421,0.941,0.9365,0.9352,0.933,0.9298,0.9292,0.9288,0.9275,0.9289,0.9279,0.9283,0.9281,0.9275,0.928,0.9284,0.9227,0.9227,0.9227,0,0,0.9612,0.9589,0.9587,0.9565,0.9531,0.9503,0.9503,0.9462,0.9445,0.9432,0.9396,0.9383,0.9355,0.9332,0.9317,0.9345,0.9318,0.934,0.9367,0.9363,0.9367,0.937,0.9377,0.938,0.9341,0.9341,0.9342,0,0.9648,0.9627,0.959,0.9579,0.9564,0.9521,0.9518,0.9498,0.9461,0.945,0.9436,0.9397,0.9372,0.9359,0.9365,0.9356,0.9352,0.9344,0.9369,0.9372,0.9375,0.9381,0.9384,0.9344,0.9344,0.9344,0.9343,0,0.9672,0.9658,0.9661,0.9623,0.9609,0.9603,0.9562,0.9552,0.9527,0.95,0.9486,0.9455,0.9428,0.9423,0.94,0.9405,0.9398,0.9377,0.9352,0.9383,0.9388,0.939,0.9348,0.9347,0.9346,0.9346,0,0,0.9745,0.9686,0.9687,0.9669,0.9627,0.9615,0.9606,0.9579,0.9569,0.9544,0.9534,0.9509,0.9488,0.9471,0.9444,0.9441,0.9461,0.942,0.9419,0.9426,0.9462,0.9476,0.9479,0.9444,0.9444,0.9444,0.9463,0,0.9776,0.9756,0.9721,0.9712,0.9697,0.9656,0.9647,0.962,0.9594,0.9577,0.9549,0.9531,0.9507,0.9496,0.949,0.946,0.9467,0.9458,0.9431,0.9431,0.9439,0.9482,0.9498,0.9518,0.9465,0.9466,0.9466,0,0.9809,0.9785,0.9775,0.9731,0.9724,0.9717,0.9687,0.9672,0.964,0.9621,0.9601,0.9571,0.9557,0.9535,0.9514,0.9508,0.9495,0.9478,0.9478,0.9473,0.9449,0.9476,0.9524,0.9526,0.9469,0.9469,0.9469,0,0.986,0.9825,0.9814,0.9799,0.975,0.9745,0.9724,0.9691,0.9675,0.965,0.9639,0.9612,0.9597,0.9576,0.9539,0.9527,0.9521,0.9497,0.9503,0.9504,0.9502,0.9503,0.9546,0.9498,0.9498,0.9498,0.9498,0,0.9896,0.9891,0.9835,0.9828,0.982,0.9779,0.9772,0.9747,0.9717,0.9703,0.9666,0.9653,0.9606,0.9588,0.9559,0.9543,0.9538,0.9521,0.9513,0.9523,0.9525,0.9512,0.9509,0.9498,0.9498,0.9498,0.9498,0,0.9951,0.9914,0.9898,0.9852,0.984,0.9836,0.9795,0.9786,0.9758,0.974,0.9734,0.9689,0.9665,0.9626,0.9591,0.9572,0.9561,0.9549,0.9571,0.9566,0.9574,0.9573,0.9609,0.9611,0.9564,0.9564,0.9565,0,0.9976,0.997,0.9923,0.991,0.989,0.9872,0.9855,0.9814,0.9799,0.976,0.9754,0.9727,0.9703,0.9667,0.963,0.9603,0.9588,0.9603,0.9584,0.9593,0.9585,0.9585,0.9583,0.9607,0.9608,0.9608,0.9609,0,1.0022,1.0003,0.9982,0.9953,0.9935,0.991,0.9884,0.9876,0.9828,0.9812,0.9787,0.9768,0.9731,0.9704,0.9671,0.9648,0.9619,0.9615,0.9615,0.9624,0.9636,0.9627,0.9581,0.9614,0.9614,0.9613,0.9613,0.9613,1.006,1.0052,1.0017,0.9993,0.9969,0.9944,0.9932,0.9902,0.988,0.9847,0.9824,0.9799,0.9764,0.9716,0.9694,0.9674,0.9661,0.9662,0.9661,0.9661,0.9664,0.9641,0.9668,0.9667,0.9667,0.9667,0.9667,0,1.0102,1.0077,1.0056,1.0019,1.0,0.9976,0.9944,0.993,0.9909,0.9879,0.9855,0.9824,0.9797,0.9758,0.9728,0.9718,0.9704,0.9711,0.9711,0.9705,0.9678,0.968,0.9723,0.9723,0.9723,0.9723,0.9723,0.9723,1.0121,1.0106,1.0083,1.0054,1.0028,1.0004,0.9988,0.9964,0.994,0.9907,0.9884,0.9859,0.9825,0.9791,0.9764,0.9753,0.9742,0.9753,0.9738,0.9713,0.9707,0.9703,0.9704,0.9752,0.9752,0.9766,0.9767,0.9767]}]]